AAUSAT2 (32788 NORAD) Tracking and Keplerian Element Data

This shows tracking and keplerian element data for the satellite.

Feedback or suggestion? Click here.




ElementValue
Catalog32788
NameAAUSAT2
Epoch Orbit91365
Epoch Day34.41428011
Epoch Year2025
RAAN25.5506
Inclination97.6054
Eccentricity0.0007484
Argument of Perigee89.1407
Mean Anonmoly271.0699
Mean Motion15.45670355
Decay Rate0.00095218
L11 32788U 08021F 25034.41428011 .00095218 00000-0 19529-2 0 9997
L22 32788 97.6054 25.5506 0007484 89.1407 271.0699 15.45670355913655



Live tracking and technical data element details for AAUSAT2 (NORAD 32788). AAUSAT2 can be tracked NOW for your location showing map with azimuth and elevation plus other details from your city location.







IsCatalogInMostPopularTable: catalog: 32788, numindb: 572
Update: records affected: 1



GetName: 32788 AAUSAT2

Hit Count: updated at: Thu, 22 May 2025 03:56:34 GMT